TimeCDT,TemperatureF,Dew PointF,Humidity,Sea Level PressureIn,VisibilityMPH,Wind Direction,Wind SpeedMPH,Gust SpeedMPH,PrecipitationIn,Events,Conditions,WindDirDegrees,DateUTC
12:15 AM,57.2,51.8,82,30.10,10.0,NNE,6.9,-,N/A,,Clear,30,2012-10-06 05:15:00
12:35 AM,57.2,51.8,82,30.10,10.0,NNE,6.9,-,N/A,,Clear,30,2012-10-06 05:35:00
12:55 AM,55.4,51.8,88,30.10,10.0,NNE,8.1,-,N/A,,Scattered Clouds,30,2012-10-06 05:55:00
1:15 AM,55.4,51.8,88,30.10,10.0,NNE,9.2,-,N/A,,Mostly Cloudy,20,2012-10-06 06:15:00
1:35 AM,55.4,51.8,88,30.10,10.0,NNE,10.4,-,N/A,,Scattered Clouds,20,2012-10-06 06:35:00
2:15 AM,55.4,51.8,88,30.11,10.0,NNE,8.1,-,N/A,,Mostly Cloudy,20,2012-10-06 07:15:00
2:35 AM,55.4,51.8,88,30.11,10.0,NNE,8.1,-,N/A,,Overcast,20,2012-10-06 07:35:00
2:55 AM,55.4,51.8,88,30.12,10.0,NNE,10.4,-,N/A,,Overcast,30,2012-10-06 07:55:00
3:15 AM,55.4,51.8,88,30.12,10.0,NE,12.7,-,N/A,,Overcast,40,2012-10-06 08:15:00
3:35 AM,55.4,50.0,82,30.11,10.0,NNE,11.5,-,N/A,,Overcast,30,2012-10-06 08:35:00
3:55 AM,55.4,50.0,82,30.11,10.0,NNE,9.2,-,N/A,,Overcast,30,2012-10-06 08:55:00
4:15 AM,55.4,50.0,82,30.11,10.0,NNE,16.1,-,N/A,,Overcast,20,2012-10-06 09:15:00
4:35 AM,55.4,50.0,82,30.11,10.0,NNE,11.5,-,N/A,,Overcast,20,2012-10-06 09:35:00
4:55 AM,55.4,50.0,82,30.11,10.0,North,11.5,-,N/A,,Overcast,10,2012-10-06 09:55:00
5:35 AM,53.6,46.4,77,30.10,10.0,NNE,13.8,-,N/A,,Overcast,20,2012-10-06 10:35:00
5:55 AM,53.6,46.4,77,30.12,10.0,NNE,12.7,-,N/A,,Overcast,30,2012-10-06 10:55:00
6:15 AM,53.6,46.4,77,30.12,10.0,NNE,16.1,20.7,N/A,,Overcast,30,2012-10-06 11:15:00
6:35 AM,51.8,46.4,82,30.12,10.0,NE,9.2,18.4,N/A,,Overcast,40,2012-10-06 11:35:00
7:15 AM,51.8,46.4,82,30.14,10.0,NE,8.1,-,N/A,,Overcast,40,2012-10-06 12:15:00
7:35 AM,51.8,46.4,82,30.14,7.0,North,11.5,16.1,N/A,,Overcast,10,2012-10-06 12:35:00
8:15 AM,51.8,46.4,82,30.15,10.0,NNE,11.5,-,N/A,,Overcast,30,2012-10-06 13:15:00
8:35 AM,51.8,44.6,76,30.15,10.0,NE,11.5,-,N/A,,Overcast,40,2012-10-06 13:35:00
8:55 AM,51.8,44.6,76,30.15,10.0,NNE,13.8,19.6,N/A,,Overcast,20,2012-10-06 13:55:00
9:15 AM,51.8,44.6,76,30.16,10.0,NNE,15.0,-,N/A,,Overcast,30,2012-10-06 14:15:00
9:35 AM,50.0,44.6,82,30.17,10.0,NNE,11.5,-,N/A,,Overcast,20,2012-10-06 14:35:00
9:55 AM,50.0,44.6,82,30.17,10.0,NNE,11.5,-,N/A,,Overcast,20,2012-10-06 14:55:00
10:15 AM,51.8,44.6,76,30.17,10.0,NE,11.5,-,N/A,,Overcast,40,2012-10-06 15:15:00
10:35 AM,50.0,44.6,82,30.18,10.0,North,10.4,-,N/A,,Overcast,10,2012-10-06 15:35:00
10:55 AM,50.0,46.4,87,30.18,10.0,NNE,11.5,-,N/A,,Overcast,30,2012-10-06 15:55:00
11:15 AM,51.8,44.6,76,30.18,10.0,NNE,12.7,-,N/A,,Overcast,30,2012-10-06 16:15:00
11:35 AM,51.8,44.6,76,30.18,10.0,NNE,10.4,-,N/A,,Overcast,20,2012-10-06 16:35:00
11:55 AM,51.8,44.6,76,30.18,10.0,NNE,11.5,-,N/A,,Overcast,20,2012-10-06 16:55:00
12:15 PM,51.8,44.6,76,30.18,10.0,NNE,9.2,-,N/A,,Overcast,20,2012-10-06 17:15:00
12:35 PM,51.8,44.6,76,30.18,10.0,NNE,10.4,-,N/A,,Overcast,20,2012-10-06 17:35:00
12:55 PM,53.6,44.6,72,30.16,10.0,NNE,10.4,-,N/A,,Overcast,30,2012-10-06 17:55:00
1:15 PM,51.8,44.6,76,30.16,10.0,NNE,8.1,-,N/A,,Overcast,20,2012-10-06 18:15:00
1:35 PM,53.6,44.6,72,30.16,10.0,NNE,8.1,-,N/A,,Overcast,20,2012-10-06 18:35:00
1:55 PM,53.6,44.6,72,30.15,10.0,NNE,9.2,-,N/A,,Overcast,30,2012-10-06 18:55:00
2:35 PM,53.6,44.6,72,30.14,10.0,NE,6.9,-,N/A,,Overcast,40,2012-10-06 19:35:00
3:15 PM,53.6,44.6,72,30.13,10.0,North,13.8,-,N/A,,Overcast,10,2012-10-06 20:15:00
3:35 PM,51.8,44.6,76,30.14,10.0,North,15.0,18.4,N/A,,Overcast,360,2012-10-06 20:35:00
3:55 PM,51.8,44.6,76,30.14,10.0,North,12.7,18.4,N/A,,Overcast,10,2012-10-06 20:55:00
4:15 PM,51.8,44.6,76,30.14,10.0,North,8.1,-,N/A,,Overcast,10,2012-10-06 21:15:00
4:35 PM,51.8,44.6,76,30.14,10.0,North,8.1,-,N/A,,Overcast,10,2012-10-06 21:35:00
4:55 PM,51.8,44.6,76,30.14,10.0,NNE,12.7,16.1,N/A,,Overcast,30,2012-10-06 21:55:00
5:15 PM,51.8,44.6,76,30.14,10.0,North,9.2,-,N/A,,Overcast,10,2012-10-06 22:15:00
5:35 PM,51.8,44.6,76,30.14,10.0,North,11.5,16.1,N/A,,Overcast,10,2012-10-06 22:35:00
6:15 PM,50.0,44.6,82,30.14,10.0,NNE,12.7,17.3,N/A,,Overcast,20,2012-10-06 23:15:00
6:35 PM,50.0,44.6,82,30.15,10.0,North,12.7,17.3,N/A,,Overcast,10,2012-10-06 23:35:00
6:55 PM,50.0,44.6,82,30.16,10.0,NNE,12.7,-,N/A,,Overcast,30,2012-10-06 23:55:00
7:15 PM,50.0,44.6,82,30.16,10.0,NNE,12.7,-,N/A,,Overcast,20,2012-10-07 00:15:00
7:35 PM,50.0,44.6,82,30.16,10.0,NNE,10.4,-,N/A,,Overcast,30,2012-10-07 00:35:00
7:55 PM,50.0,44.6,82,30.17,10.0,NE,12.7,-,N/A,,Overcast,40,2012-10-07 00:55:00
8:15 PM,50.0,44.6,82,30.18,10.0,NNE,10.4,-,N/A,,Overcast,30,2012-10-07 01:15:00
8:35 PM,48.2,44.6,87,30.19,10.0,NNE,11.5,-,N/A,,Overcast,20,2012-10-07 01:35:00
8:55 PM,48.2,44.6,87,30.21,10.0,NNE,13.8,17.3,N/A,,Overcast,20,2012-10-07 01:55:00
9:15 PM,46.4,44.6,93,30.21,7.0,NNE,13.8,-,N/A,,Overcast,20,2012-10-07 02:15:00
9:35 PM,46.4,44.6,93,30.22,4.0,NNE,15.0,18.4,N/A,,Overcast,20,2012-10-07 02:35:00
9:55 PM,44.6,44.6,100,30.23,5.0,North,12.7,-,N/A,,Overcast,10,2012-10-07 02:55:00
10:15 PM,44.6,44.6,100,30.23,5.0,North,12.7,-,N/A,,Overcast,10,2012-10-07 03:15:00
10:35 PM,44.6,42.8,93,30.24,7.0,North,12.7,-,N/A,,Overcast,10,2012-10-07 03:35:00
10:55 PM,44.6,42.8,93,30.24,5.0,North,11.5,18.4,N/A,,Overcast,10,2012-10-07 03:55:00
11:15 PM,44.6,42.8,93,30.24,5.0,North,11.5,-,N/A,,Overcast,10,2012-10-07 04:15:00
11:35 PM,44.6,42.8,93,30.25,7.0,North,17.3,20.7,N/A,,Overcast,10,2012-10-07 04:35:00
11:55 PM,44.6,42.8,93,30.25,5.0,North,16.1,-,N/A,,Overcast,10,2012-10-07 04:55:00